Weather History for Durango, CO

Change the Weather History Date:

Sunday, March 18, 2012

  Actual Average Record
Temperature  
Mean Temperature 39 °F 38 °F  
Max Temperature 55 °F 53 °F 75 °F (2007)
Min Temperature 23 °F 24 °F 9 °F (1970)
Degree Days  
Heating Degree Days 26 27  
Month to date heating degree days 495 528  
Since 1 July heating degree days 5364 5703  
Cooling Degree Days 0 0  
Month to date cooling degree days 0 0  
Year to date cooling degree days 0 0  
Moisture  
Dew Point 24 °F    
Average Humidity 61    
Maximum Humidity 96    
Minimum Humidity 26    
Precipitation  
Precipitation 0.08 in 0.03 in 0.49 in (1983)
Month to date precipitation 0.23 0.74  
Year to date precipitation 2.05 3.02  
Sea Level Pressure  
Sea Level Pressure 29.61 in    
Wind  
Wind Speed 12 mph (SSW)    
Max Wind Speed 40 mph    
Max Gust Speed 52 mph    
Visibility 7 miles    
Events Fog , Rain , Snow    
T = Trace of Precipitation, MM = Missing Value Source: NWS Daily Summary

Daily Weather History Graph

Daily Weather History Graph

Search for Another Location

Airport:

Trip Planner

Search our weather history database for the weather conditions in past years. The results will help you decide how hot, cold, wet, or windy it might be!

Date:

Astronomy

Mar. 18, 2012 Rise Set
Actual Time 7:16 AM MDT 7:21 PM MDT
Civil Twilight 6:50 AM MDT 7:47 PM MDT
Nautical Twilight 6:20 AM MDT 8:17 PM MDT
Astronomical Twilight 5:49 AM MDT 8:48 PM MDT
Moon 4:52 AM MDT (3/18) 3:55 PM MDT (3/18)
Length of Visible Light 12h 56m
Length of Day
12h 04m
Waning Crescent, 14% of the Moon is Illuminated
Mar 18
Waning Crescent
Mar 22
New
Mar 30
First Quarter
Apr 6
Full
Apr 13
Last Quarter

Hourly Weather History & Observations

Time (MDT) Temp. Windchill Dew Point Humidity Pressure Visibility Wind Dir Wind Speed Gust Speed Precip Events Conditions
12:53 AM 44.1 °F 40.8 °F 17.1 °F 34% 29.63 in 10.0 mi ENE 5.8 mph - N/A   Clear
1:53 AM 42.1 °F 37.1 °F 18.0 °F 38% 29.63 in 10.0 mi ENE 8.1 mph - N/A   Clear
2:53 AM 39.0 °F 34.0 °F 19.0 °F 45% 29.62 in 10.0 mi East 6.9 mph - N/A   Clear
3:53 AM 39.0 °F 36.8 °F 18.0 °F 43% 29.60 in 10.0 mi Variable 3.5 mph - N/A   Scattered Clouds
4:53 AM 37.0 °F 31.0 °F 21.0 °F 52% 29.57 in 10.0 mi East 8.1 mph - N/A   Partly Cloudy
5:53 AM 41.0 °F 36.4 °F 17.1 °F 38% 29.53 in 10.0 mi ESE 6.9 mph - N/A   Clear
6:53 AM 45.0 °F 41.8 °F 17.1 °F 33% 29.51 in 10.0 mi SE 5.8 mph - N/A   Mostly Cloudy
7:53 AM 43.0 °F 38.8 °F 17.1 °F 35% 29.51 in 10.0 mi SE 6.9 mph - N/A   Overcast
8:53 AM 45.0 °F 41.2 °F 19.0 °F 36% 29.50 in 10.0 mi SE 6.9 mph - N/A   Overcast
9:53 AM 50.0 °F - 21.0 °F 32% 29.47 in 10.0 mi South 19.6 mph 25.3 mph N/A   Overcast
10:53 AM 51.1 °F - 17.1 °F 26% 29.44 in 10.0 mi South 26.5 mph 40.3 mph N/A   Mostly Cloudy
11:53 AM 50.0 °F - 19.9 °F 31% 29.44 in 10.0 mi SSW 27.6 mph 51.8 mph N/A   Overcast
12:53 PM 48.9 °F - 23.0 °F 36% 29.42 in 8.0 mi SSW 34.5 mph 50.6 mph 0.00 in Rain Light Rain
1:53 PM 42.1 °F 31.9 °F 30.9 °F 65% 29.50 in 9.0 mi SW 26.5 mph 41.4 mph 0.00 in   Overcast
2:46 PM 37.4 °F 26.9 °F 35.6 °F 93% 29.58 in 4.0 mi WSW 20.7 mph 27.6 mph 0.01 in Rain Light Rain
2:53 PM 35.1 °F 23.8 °F 34.0 °F 96% 29.57 in 2.5 mi SW 20.7 mph 27.6 mph 0.02 in Rain Light Rain
3:15 PM 32.0 °F 20.5 °F 32.0 °F 100% 29.61 in 0.2 mi WSW 18.4 mph - 0.03 in Fog , Snow Heavy Snow
3:46 PM 30.2 °F 16.5 °F 30.2 °F 100% 29.64 in 0.5 mi West 24.2 mph 29.9 mph 0.05 in Fog , Snow Snow
4:01 PM 30.2 °F 16.5 °F 30.2 °F 100% 29.64 in 0.5 mi WSW 24.2 mph 38.0 mph 0.00 in Fog , Snow Snow
4:10 PM 30.2 °F 17.8 °F 28.4 °F 93% 29.65 in 1.0 mi WSW 19.6 mph 29.9 mph 0.00 in Snow Light Snow
4:14 PM 30.2 °F 18.5 °F 28.4 °F 93% 29.65 in 1.5 mi WSW 17.3 mph 28.8 mph 0.00 in Snow Light Snow
4:18 PM 30.2 °F 18.1 °F 28.4 °F 93% 29.64 in 3.0 mi WSW 18.4 mph - 0.00 in Snow Light Snow
4:53 PM 30.0 °F 21.7 °F 28.9 °F 96% 29.70 in 0.8 mi WSW 9.2 mph - 0.01 in Snow Light Snow
5:08 PM 30.2 °F 19.3 °F 28.4 °F 93% 29.69 in 1.0 mi SW 15.0 mph 19.6 mph 0.00 in Snow Light Snow
5:11 PM 30.2 °F 20.2 °F 28.4 °F 93% 29.69 in 1.5 mi SSW 12.7 mph 19.6 mph 0.00 in Snow Light Snow
5:19 PM 30.2 °F 19.8 °F 28.4 °F 93% 29.70 in 2.0 mi SW 13.8 mph 27.6 mph 0.00 in Snow Light Snow
5:36 PM 30.2 °F 18.9 °F 26.6 °F 86% 29.70 in 7.0 mi SSW 16.1 mph 25.3 mph 0.00 in Snow Light Snow
5:53 PM 30.9 °F 21.2 °F 26.1 °F 82% 29.70 in 10.0 mi SSW 12.7 mph - 0.00 in   Overcast
6:53 PM 30.0 °F 21.7 °F 23.0 °F 75% 29.66 in 10.0 mi South 9.2 mph - N/A   Partly Cloudy
7:53 PM 28.9 °F 18.2 °F 21.0 °F 72% 29.70 in 10.0 mi SSW 13.8 mph 23.0 mph N/A   Mostly Cloudy
8:53 PM 27.0 °F 18.7 °F 23.0 °F 85% 29.73 in 10.0 mi West 8.1 mph - 0.00 in   Overcast
9:53 PM 26.1 °F - 21.9 °F 84% 29.72 in 10.0 mi Calm Calm - 0.00 in   Scattered Clouds
10:53 PM 23.0 °F - 21.0 °F 92% 29.72 in 10.0 mi Calm Calm - N/A   Scattered Clouds
11:53 PM 23.0 °F 17.0 °F 21.0 °F 92% 29.73 in 10.0 mi East 4.6 mph - N/A   Overcast